Terminal Aerodrome Forecast
Issued by NWS

Home | Current Version | Previous Version | Text Only | Print | Product List | Glossary On
Versions: 1 2 3 4 5 6 7 8 9 10 11 12 13 14 15 16 17 18 19 20 21 22 23 24 25 26 27 28 29 30 31 32 33 34 35 36 37 38 39 40
000
FTUS43 KDMX 011134
TAFOTM
TAF
KOTM 011134Z 0112/0212 08006KT 5SM BR BKN050
     FM011500 08008KT P6SM SCT035 BKN080
     FM011900 09009KT P6SM VCSH BKN035
     FM020200 07007KT P6SM BKN040=

USA.gov is the U.S. government's official web portal to all federal, state and local government web resources and services.